Overview Statistics Trail Chart Weather Telemetry Raw packets
 

This is the latest recevied weather packets stored in our database for station/object N1YZ. If no packets are shown the sender has not sent any weather packets the latest 10 day(s).

<< 107 108 109 110 111 112 113 >>
Time Temp. Humidity Pressure Rain* Wind** Luminosity Snow
1787841091 22.78° C 99% 1035.9 hPa 0 mm - 79 W/m² -
1787840787 22.78° C 99% 1035.6 hPa 0 mm - 75 W/m² -
1787840481 22.78° C 99% 1035.6 hPa 0 mm - 80 W/m² -
1787840176 22.78° C 99% 1035.6 hPa 0 mm - 77 W/m² -
1787839871 22.78° C 99% 1035.8 hPa 0 mm - 74 W/m² -
1787839567 22.78° C 99% 1035.8 hPa 0 mm - 73 W/m² -
1787839265 22.78° C 99% 1035.6 hPa 0 mm - 72 W/m² -
1787838960 22.78° C 99% 1035.7 hPa 0 mm - 73 W/m² -
1787838660 22.78° C 99% 1035.8 hPa 0 mm - 76 W/m² -
1787838359 22.78° C 99% 1035.7 hPa 0 mm - 77 W/m² -
1787838058 22.22° C 99% 1035.6 hPa 0 mm - 82 W/m² -
1787837757 22.78° C 99% 1035.5 hPa 0 mm - 82 W/m² -
1787837453 22.22° C 99% 1035.4 hPa 0 mm - 78 W/m² -
1787837147 22.22° C 99% 1035.6 hPa 0 mm - 75 W/m² -
1787836846 22.22° C 99% 1035.6 hPa 0 mm - 74 W/m² -
1787836542 22.22° C 99% 1035.5 hPa 0 mm - 74 W/m² -
1787836237 22.22° C 99% 1035.5 hPa 0 mm - 66 W/m² -
1787835933 22.22° C 99% 1035.7 hPa 0 mm - 58 W/m² -
1787835632 22.22° C 99% 1035.6 hPa 0 mm - 51 W/m² -
1787835332 22.22° C 99% 1035.4 hPa 0 mm - 61 W/m² -
1787835027 22.22° C 99% 1035.4 hPa 0 mm - 63 W/m² -
1787834726 21.67° C 99% 1035.4 hPa 0 mm - 54 W/m² -
1787834422 21.67° C 99% 1035.6 hPa 0 mm - 42 W/m² -
1787834118 21.67° C 99% 1035.4 hPa 0 mm - 33 W/m² -
1787833813 21.67° C 99% 1035.3 hPa 0 mm - 27 W/m² -

* Rain latest hour (hover to see other rain measurements)
** Current wind speed in m/s (hover to see current wind gust speed)